When you browse on this site, cookies collect data to enhance your experience and personalize the content and advertising you see.
Visit our Privacy Policy to learn more. By continuing to use the site, you agree to this use of cookies and data.
  • In France
  • List of Countries
  • For 7 days
  • Water Temperature
  • Satellite Maps
  • Weather Map
  • Weather Widgets
  • user-avatar
    Login

    Hourly Weather Belmopan

    Today, 23 July, Tuesday

    Time Temperature Precipitation Wind Pressure Humidity
    00:00 +25°C° 0 mm 1 mps 753 mmHg 98%
    01:00 +25°C° 0 mm 1 mps 753 mmHg 99%
    02:00 +23°C° 0 mm 0 mps 752 mmHg 99%
    03:00 +23°C° 0 mm 0 mps 752 mmHg 99%
    04:00 +23°C° 0 mm 0 mps 752 mmHg 98%
    05:00 +23°C° 0 mm 0 mps 752 mmHg 98%
    06:00 +23°C° 0 mm 0 mps 752 mmHg 98%
    07:00 +27°C° 0 mm 1 mps 752 mmHg 86%
    08:00 +30°C° 0 mm 1 mps 753 mmHg 74%
    09:00 +32°C° 0 mm 1 mps 753 mmHg 62%
    10:00 +34°C° 0 mm 2 mps 753 mmHg 56%
    11:00 +36°C° 0 mm 2 mps 753 mmHg 50%
    12:00 +37°C° 0 mm 2 mps 752 mmHg 44%
    13:00 +37°C° 0 mm 3 mps 752 mmHg 45%
    14:00 +36°C° 0 mm 3 mps 751 mmHg 45%
    15:00 +36°C° 0 mm 3 mps 751 mmHg 46%
    16:00 +35°C° 0 mm 3 mps 751 mmHg 54%
    17:00 +32°C° 0 mm 2 mps 751 mmHg 63%
    18:00 +30°C° 0 mm 2 mps 751 mmHg 71%
    19:00 +29°C° 0 mm 2 mps 752 mmHg 80%
    20:00 +27°C° 0 mm 2 mps 752 mmHg 88%
    21:00 +26°C° 0 mm 1 mps 753 mmHg 97%
    22:00 +26°C° 0 mm 1 mps 753 mmHg 97%
    23:00 +26°C° 0 mm 1 mps 753 mmHg 98%

    Tomorrow, 24 July, Wednesday

    Time Temperature Precipitation Wind Pressure Humidity
    00:00 +25°C° 0 mm 1 mps 753 mmHg 98%
    01:00 +25°C° 0 mm 1 mps 753 mmHg 98%
    02:00 +23°C° 0 mm 0 mps 752 mmHg 99%
    03:00 +23°C° 0 mm 0 mps 752 mmHg 99%
    04:00 +23°C° 0 mm 0 mps 752 mmHg 98%
    05:00 +23°C° 0 mm 0 mps 752 mmHg 98%
    06:00 +22°C° 0 mm 0 mps 752 mmHg 98%
    07:00 +27°C° 0 mm 1 mps 753 mmHg 86%
    08:00 +29°C° 0 mm 1 mps 753 mmHg 75%
    09:00 +32°C° 0 mm 1 mps 753 mmHg 63%
    10:00 +33°C° 0 mm 1 mps 753 mmHg 57%
    11:00 +35°C° 0 mm 2 mps 753 mmHg 52%
    12:00 +37°C° 0 mm 2 mps 752 mmHg 46%
    13:00 +37°C° 0 mm 2 mps 752 mmHg 45%
    14:00 +36°C° 0 mm 3 mps 751 mmHg 45%
    15:00 +36°C° 0 mm 3 mps 751 mmHg 45%
    16:00 +35°C° 0 mm 3 mps 751 mmHg 53%
    17:00 +33°C° 0 mm 3 mps 751 mmHg 62%
    18:00 +30°C° 0 mm 2 mps 751 mmHg 70%
    19:00 +29°C° 0 mm 2 mps 752 mmHg 78%
    20:00 +27°C° 0 mm 2 mps 752 mmHg 86%
    21:00 +26°C° 0 mm 1 mps 753 mmHg 94%
    22:00 +25°C° 0 mm 1 mps 752 mmHg 95%
    23:00 +25°C° 0 mm 1 mps 752 mmHg 97%

    Day after tomorrow, 25 July, Thursday

    Time Temperature Precipitation Wind Pressure Humidity
    00:00 +25°C° 0 mm 1 mps 752 mmHg 99%
    01:00 +23°C° 0 mm 0 mps 752 mmHg 99%
    02:00 +23°C° 0 mm 0 mps 752 mmHg 99%
    03:00 +23°C° 0 mm 0 mps 751 mmHg 99%
    04:00 +23°C° 0.1 mm 0 mps 751 mmHg 98%
    05:00 +23°C° 0.1 mm 0 mps 752 mmHg 97%
    06:00 +23°C° 0.1 mm 0 mps 752 mmHg 96%
    07:00 +27°C° 0.1 mm 1 mps 752 mmHg 87%
    08:00 +29°C° 0.1 mm 2 mps 753 mmHg 78%
    09:00 +31°C° 0.1 mm 2 mps 753 mmHg 69%
    10:00 +33°C° 0.1 mm 3 mps 753 mmHg 64%
    11:00 +34°C° 0.1 mm 3 mps 753 mmHg 59%
    12:00 +35°C° 0.1 mm 3 mps 753 mmHg 54%
    13:00 +35°C° 0 mm 3 mps 752 mmHg 53%
    14:00 +35°C° 0 mm 4 mps 752 mmHg 51%
    15:00 +35°C° 0 mm 4 mps 751 mmHg 50%
    16:00 +34°C° 0 mm 3 mps 751 mmHg 59%
    17:00 +31°C° 0 mm 3 mps 751 mmHg 69%
    18:00 +30°C° 0 mm 2 mps 751 mmHg 78%
    19:00 +28°C° 0.1 mm 2 mps 752 mmHg 84%
    20:00 +27°C° 0.1 mm 1 mps 752 mmHg 91%
    21:00 +26°C° 0.1 mm 1 mps 753 mmHg 98%
    22:00 +26°C° 0 mm 1 mps 753 mmHg 98%
    23:00 +26°C° 0 mm 1 mps 753 mmHg 98%

    26 July, Friday

    Time Temperature Precipitation Wind Pressure Humidity
    00:00 +25°C° 0 mm 1 mps 753 mmHg 98%
    01:00 +25°C° 0.1 mm 1 mps 753 mmHg 98%
    02:00 +25°C° 0.1 mm 1 mps 752 mmHg 98%
    03:00 +25°C° 0.1 mm 1 mps 752 mmHg 98%
    04:00 +25°C° 0.1 mm 1 mps 752 mmHg 98%
    05:00 +25°C° 0.1 mm 1 mps 752 mmHg 98%
    06:00 +26°C° 0.1 mm 1 mps 753 mmHg 98%
    07:00 +27°C° 0.1 mm 2 mps 753 mmHg 89%
    08:00 +29°C° 0.1 mm 2 mps 754 mmHg 80%
    09:00 +31°C° 0.1 mm 3 mps 754 mmHg 71%
    10:00 +31°C° 0.3 mm 3 mps 754 mmHg 67%
    11:00 +33°C° 0.3 mm 3 mps 754 mmHg 63%
    12:00 +34°C° 0.3 mm 3 mps 754 mmHg 59%
    13:00 +34°C° 0.2 mm 3 mps 753 mmHg 58%
    14:00 +34°C° 0.2 mm 3 mps 753 mmHg 57%
    15:00 +34°C° 0.2 mm 3 mps 752 mmHg 56%
    16:00 +32°C° 0 mm 2 mps 752 mmHg 61%
    17:00 +30°C° 0 mm 2 mps 753 mmHg 67%
    18:00 +29°C° 0 mm 2 mps 753 mmHg 72%
    19:00 +28°C° 0 mm 1 mps 753 mmHg 80%
    20:00 +26°C° 0 mm 1 mps 754 mmHg 88%
    21:00 +23°C° 0 mm 0 mps 754 mmHg 96%
    22:00 +23°C° 0 mm 0 mps 754 mmHg 97%
    23:00 +23°C° 0 mm 0 mps 754 mmHg 98%

    27 July, Saturday

    Time Temperature Precipitation Wind Pressure Humidity
    00:00 +22°C° 0 mm 0 mps 754 mmHg 98%
    01:00 +22°C° 0 mm 0 mps 753 mmHg 99%
    02:00 +22°C° 0 mm 0 mps 753 mmHg 99%
    03:00 +22°C° 0 mm 0 mps 753 mmHg 99%
    04:00 +22°C° 0 mm 0 mps 753 mmHg 99%
    05:00 +22°C° 0 mm 0 mps 753 mmHg 99%
    06:00 +22°C° 0 mm 0 mps 754 mmHg 99%
    07:00 +26°C° 0.1 mm 1 mps 754 mmHg 87%
    08:00 +29°C° 0.1 mm 1 mps 754 mmHg 76%
    09:00 +31°C° 0.1 mm 2 mps 755 mmHg 65%
    10:00 +32°C° 0.2 mm 2 mps 754 mmHg 61%
    11:00 +34°C° 0.2 mm 3 mps 754 mmHg 58%
    12:00 +34°C° 0.2 mm 3 mps 754 mmHg 54%
    13:00 +34°C° 0.1 mm 3 mps 753 mmHg 53%
    14:00 +34°C° 0.1 mm 3 mps 753 mmHg 53%
    15:00 +34°C° 0.1 mm 3 mps 753 mmHg 52%
    16:00 +33°C° 0 mm 3 mps 753 mmHg 58%
    17:00 +31°C° 0 mm 2 mps 753 mmHg 64%
    18:00 +30°C° 0 mm 2 mps 753 mmHg 71%
    19:00 +28°C° 0.5 mm 1 mps 753 mmHg 79%
    20:00 +27°C° 0.5 mm 1 mps 754 mmHg 87%
    21:00 +25°C° 0.5 mm 1 mps 754 mmHg 96%
    22:00 +25°C° 0.7 mm 1 mps 754 mmHg 97%
    23:00 +25°C° 0.7 mm 1 mps 754 mmHg 97%

    28 July, Sunday

    Time Temperature Precipitation Wind Pressure Humidity
    00:00 +23°C° 0.7 mm 0 mps 754 mmHg 98%
    01:00 +25°C° 0.7 mm 1 mps 754 mmHg 98%
    02:00 +25°C° 0.7 mm 1 mps 753 mmHg 98%
    03:00 +25°C° 0.7 mm 1 mps 753 mmHg 98%
    04:00 +25°C° 0.2 mm 1 mps 753 mmHg 98%
    05:00 +25°C° 0.2 mm 1 mps 753 mmHg 98%
    06:00 +25°C° 0.2 mm 1 mps 753 mmHg 98%
    07:00 +27°C° 0.6 mm 2 mps 754 mmHg 92%
    08:00 +28°C° 0.6 mm 2 mps 754 mmHg 85%
    09:00 +30°C° 0.6 mm 3 mps 755 mmHg 78%
    10:00 +30°C° 0.5 mm 3 mps 755 mmHg 76%
    11:00 +31°C° 0.5 mm 3 mps 754 mmHg 74%
    12:00 +31°C° 0.5 mm 3 mps 754 mmHg 72%
    13:00 +31°C° 0.3 mm 3 mps 754 mmHg 72%
    14:00 +31°C° 0.3 mm 3 mps 753 mmHg 71%
    15:00 +31°C° 0.3 mm 3 mps 753 mmHg 71%
    16:00 +30°C° 0.2 mm 3 mps 753 mmHg 74%
    17:00 +29°C° 0.2 mm 2 mps 753 mmHg 77%
    18:00 +29°C° 0.2 mm 2 mps 753 mmHg 80%
    19:00 +27°C° 0.4 mm 1 mps 753 mmHg 86%
    20:00 +26°C° 0.4 mm 1 mps 754 mmHg 92%
    21:00 +25°C° 0.4 mm 1 mps 754 mmHg 98%
    22:00 +23°C° 0.3 mm 0 mps 754 mmHg 98%
    23:00 +23°C° 0.3 mm 0 mps 754 mmHg 99%
    Show more